Weather History for KAPY - December, 2012

Change the Weather History Date:

Wednesday, December 26, 2012

  Actual Average (KLRD) Record (KLRD)
Temperature  
Mean Temperature 44 °F 56 °F  
Max Temperature 54 °F 66 °F 89 °F (2005)
Min Temperature 35 °F 46 °F 19 °F (1983)
Degree Days  
Heating Degree Days 20 10  
Month to date heating degree days 225  
Since 1 July heating degree days 340  
Cooling Degree Days 0 1  
Month to date cooling degree days 30  
Year to date cooling degree days 4285  
Moisture  
Dew Point 21 °F    
Average Humidity 41    
Maximum Humidity 60    
Minimum Humidity 30    
Precipitation  
Precipitation 0.00 in 0.03 in 0.98 in (1938)
Month to date precipitation 0.72  
Year to date precipitation 20.04  
Sea Level Pressure  
Sea Level Pressure 30.17 in    
Wind  
Wind Speed 6 mph (NNW)    
Max Wind Speed 12 mph    
Max Gust Speed 16 mph    
Visibility 10 miles    
Events      
T = Trace of Precipitation, MM = Missing Value Source: NWS Daily Summary

Daily Weather History Graph

Daily Weather History Graph

Search for Another Location

Airport or City:

Trip Planner

Search our weather history database for the weather conditions in past years. The results will help you decide how hot, cold, wet, or windy it might be!

Date:

Astronomy

Dec. 26, 2012 Rise Set
Actual Time 7:24 AM CST 5:51 PM CST
Civil Twilight 6:58 AM CST 6:17 PM CST
Nautical Twilight 6:29 AM CST 6:45 PM CST
Astronomical Twilight 6:01 AM CST 7:14 PM CST
Moon 4:43 PM CST (12/26) 5:51 AM CST (12/26)
Length of Visible Light 11h 18m
Length of Day
10h 27m
Waxing Gibbous, 97% of the Moon is Illuminated
Dec 26
Waxing Gibbous
Dec 28
Full
Jan 4
Last Quarter
Jan 11
New
Jan 18
First Quarter

Hourly Weather History & Observations

Time (CST) Temp. Windchill Dew Point Humidity Pressure Visibility Wind Dir Wind Speed Gust Speed Precip Events Conditions
12:15 AM 50.2 °F - 21.6 °F 33% 30.15 in 10.0 mi NNW 9.2 mph - N/A   Clear
12:35 AM 49.5 °F - 21.0 °F 33% 30.17 in 10.0 mi NNW 9.2 mph - N/A   Clear
12:55 AM 48.2 °F - 21.0 °F 34% 30.17 in 10.0 mi NNW 6.9 mph - N/A   Clear
1:15 AM 47.7 °F - 20.7 °F 34% 30.17 in 10.0 mi NNW 8.1 mph - N/A   Clear
1:35 AM 46.9 °F - 20.3 °F 35% 30.17 in 10.0 mi NW 8.1 mph - N/A   Clear
1:55 AM 46.0 °F 43.9 °F 20.1 °F 36% 30.18 in 10.0 mi NW 4.6 mph - N/A   Clear
2:15 AM 45.3 °F 41.1 °F 19.8 °F 36% 30.18 in 10.0 mi NNW 8.1 mph - N/A   Clear
2:35 AM 44.2 °F 41.0 °F 19.6 °F 37% 30.19 in 10.0 mi NW 5.8 mph - N/A   Clear
3:15 AM 43.2 °F 37.9 °F 18.9 °F 38% 30.20 in 10.0 mi NNW 9.2 mph - N/A   Clear
3:35 AM 42.8 °F 39.3 °F 18.5 °F 38% 30.20 in 10.0 mi NW 5.8 mph - N/A   Clear
3:55 AM 42.1 °F 38.4 °F 18.5 °F 39% 30.20 in 10.0 mi NW 5.8 mph - N/A   Clear
4:15 AM 40.8 °F 38.8 °F 18.5 °F 41% 30.20 in 10.0 mi WNW 3.5 mph - N/A   Clear
4:35 AM 41.0 °F 36.4 °F 18.1 °F 40% 30.20 in 10.0 mi NW 6.9 mph - N/A   Clear
4:55 AM 39.6 °F 37.4 °F 18.5 °F 43% 30.20 in 10.0 mi WNW 3.5 mph - N/A   Clear
5:15 AM 38.5 °F 34.1 °F 18.5 °F 45% 30.20 in 10.0 mi WNW 5.8 mph - N/A   Clear
5:35 AM 39.2 °F 33.6 °F 17.6 °F 42% 30.20 in 10.0 mi NW 8.1 mph - N/A   Clear
5:55 AM 38.3 °F 32.5 °F 18.0 °F 44% 30.21 in 10.0 mi NW 8.1 mph - N/A   Clear
6:15 AM 38.3 °F 31.9 °F 17.6 °F 43% 30.22 in 10.0 mi NW 9.2 mph - N/A   Clear
6:35 AM 37.6 °F 32.3 °F 17.6 °F 44% 30.23 in 10.0 mi NNW 6.9 mph - N/A   Clear
6:55 AM 37.2 °F 32.6 °F 17.6 °F 45% 30.23 in 10.0 mi NW 5.8 mph - N/A   Clear
7:15 AM 36.5 °F 31.0 °F 17.6 °F 46% 30.24 in 10.0 mi NW 6.9 mph - N/A   Clear
7:35 AM 36.5 °F 32.7 °F 17.4 °F 46% 30.25 in 10.0 mi NW 4.6 mph - N/A   Clear
7:55 AM 36.5 °F 31.0 °F 17.6 °F 46% 30.26 in 10.0 mi NW 6.9 mph - N/A   Clear
8:15 AM 37.2 °F 30.6 °F 17.6 °F 45% 30.27 in 10.0 mi NW 9.2 mph - N/A   Clear
8:35 AM 38.3 °F 31.9 °F 17.6 °F 43% 30.28 in 10.0 mi NNW 9.2 mph - N/A   Clear
8:55 AM 39.6 °F 32.5 °F 17.6 °F 41% 30.29 in 10.0 mi NNW 11.5 mph 16.1 mph N/A   Clear
9:15 AM 40.3 °F 33.9 °F 17.6 °F 40% 30.30 in 10.0 mi NNW 10.4 mph - N/A   Clear
9:35 AM 41.7 °F 35.6 °F 18.1 °F 39% 30.30 in 10.0 mi NNW 10.4 mph - N/A   Clear
9:55 AM 41.9 °F 36.9 °F 18.1 °F 38% 30.30 in 10.0 mi NNW 8.1 mph 16.1 mph N/A   Clear
10:15 AM 43.2 °F 39.0 °F 18.5 °F 37% 30.29 in 10.0 mi NNW 6.9 mph - N/A   Clear
10:35 AM 44.2 °F 41.8 °F 19.0 °F 37% 30.29 in 10.0 mi North 4.6 mph - N/A   Clear
10:55 AM 45.3 °F - 19.4 °F 36% 30.28 in 10.0 mi Calm Calm - N/A   Clear
11:15 AM 46.4 °F 43.5 °F 19.9 °F 35% 30.28 in 10.0 mi NW 5.8 mph - N/A   Clear
11:35 AM 47.1 °F - 20.1 °F 34% 30.27 in 10.0 mi Calm Calm - N/A   Clear
11:55 AM 47.5 °F - 20.7 °F 35% 30.25 in 10.0 mi NNW 5.8 mph - N/A   Clear
12:15 PM 48.9 °F - 21.2 °F 34% 30.24 in 10.0 mi NW 6.9 mph - N/A   Clear
12:35 PM 49.3 °F - 21.7 °F 34% 30.22 in 10.0 mi West 3.5 mph - N/A   Clear
12:55 PM 49.8 °F - 21.7 °F 33% 30.20 in 10.0 mi West 4.6 mph - N/A   Clear
1:15 PM 50.4 °F - 22.1 °F 33% 30.18 in 10.0 mi Calm Calm - N/A   Clear
1:35 PM 51.3 °F - 22.6 °F 33% 30.17 in 10.0 mi NW 4.6 mph - N/A   Clear
1:55 PM 51.4 °F - 22.8 °F 33% 30.15 in 10.0 mi Calm Calm - N/A   Clear
2:15 PM 52.5 °F - 23.0 °F 32% 30.14 in 10.0 mi NW 5.8 mph - N/A   Clear
2:35 PM 53.4 °F - 23.7 °F 32% 30.13 in 10.0 mi West 4.6 mph - N/A   Clear
2:55 PM 53.6 °F - 23.5 °F 31% 30.12 in 10.0 mi WNW 5.8 mph - N/A   Clear
3:15 PM 54.0 °F - 23.9 °F 31% 30.11 in 10.0 mi Calm Calm - N/A   Clear
3:35 PM 53.8 °F - 23.9 °F 31% 30.10 in 10.0 mi Calm Calm - N/A   Clear
3:55 PM 54.9 °F - 23.9 °F 30% 30.09 in 10.0 mi Calm Calm - N/A   Clear
4:15 PM 54.9 °F - 24.1 °F 30% 30.09 in 10.0 mi NNE 4.6 mph - N/A   Clear
4:35 PM 54.9 °F - 24.3 °F 31% 30.09 in 10.0 mi NE 5.8 mph - N/A   Clear
4:55 PM 54.7 °F - 24.6 °F 31% 30.09 in 10.0 mi East 4.6 mph - N/A   Clear
5:15 PM 54.3 °F - 24.4 °F 31% 30.09 in 10.0 mi Calm Calm - N/A   Clear
5:35 PM 53.6 °F - 24.4 °F 32% 30.09 in 10.0 mi East 3.5 mph - N/A   Clear
5:55 PM 51.8 °F - 24.6 °F 35% 30.09 in 10.0 mi East 3.5 mph - N/A   Clear
6:15 PM 49.8 °F - 24.4 °F 37% 30.09 in 10.0 mi East 3.5 mph - N/A   Clear
6:35 PM 47.3 °F - 24.4 °F 41% 30.10 in 10.0 mi Calm Calm - N/A   Clear
6:55 PM 43.7 °F - 24.8 °F 47% 30.10 in 10.0 mi Calm Calm - N/A   Clear
7:15 PM 41.9 °F - 24.6 °F 50% 30.10 in 10.0 mi Calm Calm - N/A   Clear
7:35 PM 41.4 °F - 24.8 °F 52% 30.11 in 10.0 mi Calm Calm - N/A   Clear
7:55 PM 39.9 °F - 24.6 °F 54% 30.11 in 10.0 mi Calm Calm - N/A   Clear
8:15 PM 41.4 °F 39.4 °F 24.8 °F 52% 30.10 in 10.0 mi East 3.5 mph - N/A   Clear
8:35 PM 39.4 °F 37.2 °F 23.7 °F 54% 30.11 in 10.0 mi East 3.5 mph - N/A   Clear
8:55 PM 37.4 °F - 23.0 °F 56% 30.10 in 10.0 mi Calm Calm - N/A   Clear
9:15 PM 35.6 °F - 22.8 °F 60% 30.11 in 10.0 mi Calm Calm - N/A   Clear
9:35 PM 40.6 °F 38.6 °F 24.3 °F 52% 30.10 in 10.0 mi ESE 3.5 mph - N/A   Clear
9:55 PM 40.8 °F - 23.9 °F 51% 30.10 in 10.0 mi Calm Calm - N/A   Clear
10:15 PM 41.0 °F 39.0 °F 23.9 °F 51% 30.11 in 10.0 mi East 3.5 mph - N/A   Clear
10:35 PM 41.4 °F 36.8 °F 23.5 °F 49% 30.12 in 10.0 mi ESE 6.9 mph - N/A   Clear
10:55 PM 41.5 °F 37.8 °F 23.9 °F 50% 30.11 in 10.0 mi ESE 5.8 mph - N/A   Clear
11:15 PM 41.0 °F 38.0 °F 24.8 °F 53% 30.10 in 10.0 mi ESE 4.6 mph - N/A   Clear
11:35 PM 40.6 °F 37.5 °F 25.9 °F 56% 30.09 in 10.0 mi ESE 4.6 mph - N/A   Clear
11:55 PM 40.5 °F 38.4 °F 27.5 °F 60% 30.10 in 10.0 mi ESE 3.5 mph - N/A   Clear